PulseSat

PulseSat

MOLNIYA 1-62

Last updated on Feb. 14, 2019, 3:05 a.m. UTC

1 15214U 84089A   19044.27536966 -.00000934  00000-0 -39780-2 0  9991
2 15214  62.7670 196.8795 7128232 263.8240  18.2192  1.97954598220103
UTC
Height (km)
Latitude
Longitude
Inclination
Orbital Period

Next 30 passes for location: Hong Kong

Rise time Rise Azimuth (degrees) Set time Set Azimuth (degrees) Duration Max altitude (degrees)

No matching passes for this satellites

PulseSat

PulseSat is the new satellites software and hardware trackering solution by Pulsely.
Satellite Two Line Element Set source: US Air Force Space Command

Download PulseSat for iOS
© 2017 Pulsely Limited